Wind_Speed
39 35 33 32 32 30 30 29 28 25 23 20 17 16 15 15 13 12 11 12 11 11 11 10 11 10 9 8 8 9 10 10 11 11 11 12 13 14 14 16 17 16 15
42 39 35 32 31 34 32 31 28 28 27 24 22 22 20 18 16 14 14 14 14 13 13 14 13 12 12 11 11 10 10 11 11 12 12 12 12 13 14 15 13 15 13
46 43 39 36 32 34 35 33 31 28 29 29 27 26 24 24 21 18 17 17 16 16 17 17 16 15 14 13 13 12 12 13 13 13 14 14 14 14 13 11 12 12 13
49 47 44 39 36 34 34 34 33 31 30 30 29 29 29 27 24 22 21 19 18 19 19 20 18 16 15 15 14 13 13 14 15 15 15 15 15 15 13 12 11 12 14
50 49 46 41 37 35 34 33 33 32 33 32 32 31 30 30 29 27 25 22 21 22 21 22 20 19 18 16 15 14 14 15 16 15 15 15 14 13 11 13 16 17 17
53 51 46 43 41 39 36 34 33 33 34 33 34 34 33 33 32 30 29 28 26 25 24 22 23 22 20 17 16 17 16 17 16 16 16 15 14 12 13 16 16 18 18
50 48 47 45 43 41 39 36 36 35 34 34 35 34 34 34 33 30 28 30 29 27 25 25 25 24 21 20 19 19 19 18 17 17 15 15 14 13 15 14 16 19 20
48 45 44 43 43 42 41 40 37 36 36 35 37 35 34 35 32 30 27 28 29 28 27 27 27 25 25 23 20 20 20 20 18 18 18 15 14 14 13 14 17 19 20
48 45 43 40 39 41 42 41 39 38 38 36 38 37 35 36 33 30 27 30 31 30 29 28 28 28 26 25 26 25 20 18 18 17 17 15 13 12 13 16 15 18 20
46 43 40 39 38 39 40 40 40 39 39 37 38 37 36 36 34 30 29 30 32 31 30 29 30 31 29 29 28 22 20 16 19 18 15 15 14 14 16 14 15 17 18
40 36 38 38 37 36 36 38 39 39 38 39 38 38 37 37 35 29 28 31 32 32 32 32 30 31 32 30 28 22 18 17 16 16 15 14 14 15 14 14 15 15 14
40 37 35 33 35 35 33 35 37 37 37 38 37 38 38 41 36 28 28 29 33 36 35 30 29 29 31 28 26 22 19 17 16 14 14 13 12 12 13 14 16 13 14
39 34 34 33 33 32 31 32 34 35 36 37 38 39 42 38 39 32 25 29 35 38 37 31 26 27 30 30 28 24 20 20 20 15 12 11 12 13 13 14 13 12 14
36 32 31 32 32 32 31 31 34 36 36 36 39 42 39 38 41 35 28 27 30 36 35 32 31 32 39 31 27 25 24 19 20 16 14 11 12 13 13 14 11 12 13
31 32 32 31 30 31 32 32 32 33 34 35 37 36 38 39 39 31 27 26 26 26 29 34 38 37 32 30 27 27 27 24 22 16 14 12 11 14 13 12 11 12 14
25 27 28 29 30 31 31 32 33 34 34 35 34 35 36 36 37 31 27 24 22 24 28 33 37 36 36 33 29 30 30 24 21 16 14 12 12 13 12 11 11 12 16
22 21 21 23 26 27 27 29 31 30 31 31 31 31 32 32 29 25 23 23 24 24 27 33 35 38 32 35 29 29 28 22 18 18 15 11 11 13 11 10 10 12 13
16 15 15 14 16 20 24 25 25 27 28 27 24 24 24 24 25 24 25 25 31 32 29 30 30 32 31 32 27 25 24 23 19 17 14 11 11 11 11 9 8 12 10
6 8 6 4 6 10 14 19 20 20 22 23 22 20 21 21 20 20 22 28 33 37 32 32 29 32 30 28 25 24 22 20 17 14 12 10 12 12 10 8 9 8 8
7 7 5 4 4 7 12 15 18 19 20 22 23 20 20 20 21 21 23 27 29 32 31 30 29 31 27 26 25 25 21 21 20 17 13 10 11 10 8 8 9 5 7
10 6 2 2 2 5 10 13 16 17 18 21 21 16 15 20 21 21 22 25 27 26 27 31 30 28 25 23 25 26 22 20 18 14 11 8 11 8 6 6 7 5 8
16 15 13 12 7 6 10 15 19 20 20 21 22 22 22 23 25 23 21 20 22 24 30 32 28 19 19 23 27 26 20 18 18 14 12 8 12 7 5 6 5 4 9
18 17 16 15 16 18 18 18 20 21 23 22 20 21 21 23 26 21 18 19 19 21 25 30 21 17 19 23 26 22 19 20 17 15 13 10 13 8 5 4 3 2 8
21 20 18 17 17 17 15 18 19 20 22 23 25 27 24 22 21 20 19 19 19 20 21 22 20 17 21 26 26 23 24 23 21 17 12 16 12 10 6 5 2 1 6
19 17 16 17 16 15 14 15 16 19 22 23 25 25 23 21 20 18 16 17 19 18 20 20 22 20 23 24 27 28 27 26 21 12 17 16 10 9 8 6 4 2 4
17 18 18 17 18 19 18 17 14 13 13 15 16 18 20 21 17 17 17 18 17 17 19 21 24 22 22 25 28 28 28 24 17 18 20 17 13 12 11 7 6 4 5
Wind_Direction
220 221 223 225 226 228 233 237 241 243 245 253 261 268 285 290 286 293 310 313 303 299 301 302 299 300 301 301 304 302 302 301 301 301 301 301 306 303 303 305 309 314 321
222 223 222 226 227 230 233 236 240 243 244 249 258 267 272 282 280 282 298 305 305 297 293 293 291 291 298 297 295 294 303 304 302 300 304 304 308 310 313 319 325 329 326
222 224 224 225 228 232 232 235 239 243 244 247 254 262 271 279 275 276 287 295 292 297 290 288 292 293 298 300 299 294 302 305 303 300 305 309 312 315 317 315 320 318 315
224 223 225 226 228 232 233 235 239 241 244 247 253 261 268 271 271 271 276 283 285 286 289 285 287 292 292 288 288 290 298 304 302 301 307 309 313 312 309 315 316 315 321
224 224 225 226 227 231 235 235 238 241 244 249 254 258 263 267 269 269 272 276 279 279 285 286 283 283 285 291 286 281 286 293 298 299 301 306 312 309 305 315 318 323 331
224 226 225 225 227 230 234 236 238 240 245 249 252 257 262 265 268 269 269 271 274 272 275 285 281 278 284 286 291 289 283 290 296 296 300 304 307 309 311 318 317 323 322
224 225 227 225 226 229 233 236 239 242 246 250 255 257 261 265 267 268 269 268 267 267 270 273 280 278 278 281 281 285 282 286 293 293 294 299 303 299 306 310 317 319 321
222 222 224 225 224 228 232 236 239 244 247 251 256 260 263 264 266 268 269 267 264 265 268 267 273 275 274 275 275 280 278 279 288 293 295 292 290 294 300 307 312 313 314
222 221 222 222 222 227 231 236 240 244 249 251 255 261 265 266 268 270 270 268 264 266 266 264 269 273 274 272 275 279 276 278 284 289 291 289 291 289 295 305 309 307 310
223 222 222 223 224 229 233 236 240 245 250 254 257 261 263 266 268 269 271 270 268 266 265 265 267 269 268 267 270 273 276 282 288 293 292 292 292 289 295 299 302 305 313
224 223 225 226 227 230 235 238 241 244 249 254 257 262 266 267 269 270 270 271 273 271 267 263 264 266 266 267 266 269 276 266 282 290 290 291 285 288 295 298 306 306 304
225 224 226 225 226 228 231 237 240 244 248 254 259 262 264 268 271 274 273 275 275 270 267 265 263 262 265 264 260 266 262 265 281 280 280 286 287 292 295 299 306 305 305
228 227 229 234 234 234 235 239 242 245 249 254 258 261 264 273 279 275 277 279 271 271 270 265 261 261 258 250 246 247 245 261 261 270 273 274 285 297 301 304 304 306 311
231 232 237 239 240 238 239 240 245 248 250 254 259 262 273 276 279 285 287 280 276 270 264 256 248 237 244 246 235 233 244 255 261 269 270 276 284 297 302 307 302 311 317
239 239 239 239 242 244 245 247 248 252 254 258 263 270 274 278 284 292 287 280 278 279 273 259 253 251 244 239 234 239 242 247 246 250 259 274 285 291 298 304 306 319 321
236 240 243 244 245 246 249 251 255 258 261 265 269 272 277 282 287 294 290 286 280 275 264 260 257 253 252 247 247 244 242 250 257 250 253 274 282 286 292 297 311 321 325
235 238 246 252 255 255 254 257 260 264 269 272 276 280 284 286 287 291 288 286 277 269 259 258 256 253 261 250 245 245 248 253 254 247 257 271 273 283 286 293 315 327 325
224 230 229 240 259 270 274 274 274 275 277 277 277 277 277 277 279 279 272 267 269 266 259 258 259 256 258 251 247 243 240 239 245 244 258 271 276 277 280 297 319 332 324
172 194 215 231 263 276 278 278 277 274 274 278 282 280 282 278 273 262 258 261 264 268 263 263 253 252 249 246 241 231 230 232 232 233 251 270 281 271 276 297 317 331 327
65 134 156 209 230 288 292 285 281 281 283 283 285 287 280 274 269 263 262 259 266 267 264 259 256 255 253 240 230 218 221 224 220 218 234 250 261 262 273 289 317 321 340
349 24 67 333 222 270 285 286 287 285 284 285 288 286 272 268 269 266 269 267 266 268 272 261 255 258 253 237 216 210 216 215 215 222 235 263 247 246 262 281 310 311 350
349 345 342 334 324 273 284 286 287 283 287 291 293 286 276 267 272 268 266 268 271 271 270 264 255 259 249 226 207 206 204 207 207 217 227 245 232 239 237 277 294 310 355
20 8 354 340 318 291 282 275 273 278 282 285 287 287 276 274 274 268 273 272 272 274 276 267 247 236 223 209 202 205 195 197 197 216 240 212 220 215 216 250 269 335 1
18 11 4 352 338 328 312 282 271 270 274 278 278 277 274 277 271 267 274 273 274 272 263 256 231 219 212 197 193 191 192 188 203 212 205 198 198 201 200 200 200 23 17
17 18 13 12 5 350 330 306 292 275 273 274 278 278 278 272 269 271 270 272 277 270 250 241 215 209 202 198 195 196 189 196 205 213 189 195 188 192 192 181 158 98 86
17 21 19 14 14 10 5 355 339 308 281 286 294 293 287 276 274 271 265 267 269 259 243 227 208 205 203 198 195 195 195 203 202 190 184 191 184 189 185 176 154 119 124
Height
1532 1536 1540 1545 1549 1553 1556 1560 1563 1567 1569 1571 1572 1573 1574 1574 1575 1575 1574 1573 1572 1572 1571 1570 1568 1566 1563 1561 1560 1559 1557 1556 1553 1550 1549 1546 1545 1542 1541 1539 1536 1535 1532
1525 1530 1534 1539 1544 1547 1550 1554 1558 1561 1564 1567 1568 1569 1570 1571 1572 1572 1572 1571 1571 1570 1569 1567 1565 1562 1562 1561 1559 1558 1555 1553 1551 1548 1546 1543 1541 1540 1539 1537 1536 1533 1530
1516 1523 1528 1532 1537 1540 1544 1548 1552 1556 1559 1562 1564 1565 1566 1567 1568 1569 1569 1569 1569 1568 1566 1565 1563 1564 1563 1562 1560 1557 1554 1551 1549 1545 1543 1542 1539 1538 1537 1534 1532 1530 1527
1508 1514 1520 1525 1530 1534 1538 1542 1546 1550 1553 1556 1558 1560 1561 1562 1563 1564 1565 1565 1565 1563 1562 1561 1562 1562 1559 1555 1554 1554 1552 1551 1547 1545 1544 1541 1539 1535 1532 1530 1528 1526 1525
1499 1506 1511 1518 1523 1528 1532 1536 1540 1544 1546 1550 1552 1553 1555 1556 1557 1558 1559 1560 1561 1559 1559 1558 1558 1555 1554 1553 1552 1550 1548 1545 1543 1543 1540 1538 1536 1533 1530 1528 1525 1524 1523
1491 1497 1504 1511 1516 1520 1525 1530 1533 1536 1539 1543 1544 1546 1548 1549 1550 1552 1553 1554 1554 1554 1554 1554 1553 1552 1551 1550 1549 1548 1546 1543 1540 1538 1537 1535 1531 1531 1528 1527 1523 1522 1520
1482 1489 1496 1502 1508 1513 1518 1523 1525 1528 1531 1534 1536 1539 1540 1542 1543 1545 1547 1547 1547 1547 1549 1550 1549 1547 1547 1546 1543 1541 1539 1538 1537 1534 1530 1530 1529 1526 1525 1523 1522 1519 1516
1475 1481 1487 1493 1499 1506 1510 1514 1518 1521 1524 1527 1528 1531 1533 1534 1537 1539 1541 1540 1540 1542 1543 1543 1542 1541 1540 1539 1537 1534 1533 1533 1532 1530 1529 1526 1523 1523 1522 1521 1519 1516 1512
1466 1473 1479 1485 1492 1497 1501 1506 1511 1513 1516 1519 1520 1523 1525 1526 1529 1532 1534 1533 1532 1533 1535 1535 1535 1534 1536 1535 1532 1531 1532 1531 1529 1527 1525 1524 1523 1521 1519 1517 1514 1511 1508
1458 1464 1471 1478 1484 1490 1494 1498 1503 1506 1508 1512 1513 1515 1517 1518 1521 1524 1526 1525 1524 1525 1526 1527 1527 1526 1526 1524 1524 1526 1527 1529 1528 1526 1524 1523 1522 1520 1517 1514 1511 1507 1505
1453 1459 1465 1470 1476 1481 1487 1492 1495 1498 1501 1503 1506 1507 1508 1510 1512 1516 1518 1516 1516 1516 1515 1515 1516 1517 1518 1519 1520 1521 1522 1520 1520 1523 1523 1520 1519 1519 1516 1513 1509 1505 1502
1448 1453 1459 1464 1468 1473 1477 1483 1486 1490 1493 1495 1497 1498 1499 1498 1502 1508 1510 1509 1506 1503 1502 1506 1507 1509 1511 1515 1517 1518 1516 1516 1516 1513 1513 1516 1515 1514 1512 1509 1505 1502 1499
1443 1448 1454 1458 1462 1466 1470 1475 1479 1482 1484 1487 1488 1489 1489 1492 1492 1498 1501 1498 1496 1494 1494 1496 1501 1503 1501 1498 1498 1507 1507 1508 1505 1509 1508 1507 1509 1509 1507 1505 1502 1500 1497
1438 1443 1448 1452 1456 1460 1463 1467 1471 1474 1476 1479 1480 1480 1483 1484 1482 1487 1491 1490 1488 1486 1486 1487 1485 1476 1485 1487 1494 1494 1497 1497 1504 1508 1505 1501 1502 1505 1503 1502 1500 1496 1493
1434 1438 1442 1445 1449 1453 1456 1459 1462 1465 1468 1470 1472 1474 1474 1473 1473 1480 1481 1479 1479 1479 1479 1479 1482 1484 1484 1488 1489 1494 1493 1492 1492 1494 1498 1498 1497 1500 1499 1498 1495 1493 1488
1427 1431 1434 1438 1442 1445 1449 1452 1455 1458 1460 1462 1464 1464 1465 1465 1465 1468 1469 1470 1470 1471 1470 1469 1473 1475 1479 1481 1483 1488 1490 1491 1494 1494 1492 1494 1494 1496 1496 1494 1493 1490 1486
1420 1423 1428 1432 1435 1438 1441 1444 1446 1449 1451 1453 1454 1455 1456 1456 1457 1458 1460 1462 1462 1463 1460 1460 1463 1468 1472 1475 1476 1480 1485 1487 1490 1492 1493 1489 1490 1493 1493 1490 1489 1487 1484
1416 1419 1421 1424 1428 1432 1434 1437 1439 1440 1442 1444 1447 1448 1448 1448 1448 1450 1452 1453 1452 1453 1453 1454 1457 1459 1463 1466 1469 1474 1479 1482 1485 1490 1492 1489 1489 1491 1490 1489 1487 1484 1482
1414 1415 1418 1417 1421 1425 1428 1431 1433 1434 1435 1436 1438 1440 1440 1440 1440 1442 1443 1443 1444 1445 1446 1446 1448 1449 1453 1457 1461 1466 1472 1477 1480 1483 1487 1487 1486 1488 1489 1489 1485 1481 1477
1416 1411 1413 1415 1413 1419 1423 1426 1428 1429 1429 1429 1430 1432 1432 1432 1432 1434 1434 1435 1435 1436 1438 1438 1440 1441 1445 1449 1453 1460 1464 1469 1473 1474 1475 1476 1479 1484 1485 1486 1484 1480 1476
1417 1409 1409 1412 1406 1411 1419 1422 1424 1424 1424 1424 1425 1426 1426 1426 1426 1426 1427 1428 1428 1430 1431 1432 1432 1435 1438 1443 1447 1453 1457 1465 1471 1474 1476 1475 1478 1480 1482 1483 1482 1479 1476
1405 1403 1401 1404 1405 1408 1412 1416 1419 1420 1418 1418 1418 1418 1419 1419 1419 1419 1419 1421 1422 1423 1424 1425 1426 1430 1433 1437 1441 1447 1454 1462 1467 1470 1469 1469 1474 1477 1477 1480 1480 1478 1476
1403 1402 1402 1403 1403 1405 1407 1411 1414 1415 1414 1413 1413 1412 1411 1412 1413 1413 1414 1415 1416 1417 1418 1418 1421 1424 1428 1432 1439 1444 1448 1453 1457 1460 1465 1464 1471 1472 1472 1476 1477 1476 1474
1399 1399 1402 1404 1403 1401 1404 1407 1407 1406 1407 1407 1407 1406 1406 1406 1407 1407 1409 1409 1409 1410 1411 1413 1416 1419 1423 1427 1434 1439 1442 1445 1448 1452 1456 1460 1464 1467 1468 1470 1473 1473 1472
1408 1408 1409 1408 1407 1405 1403 1401 1399 1399 1400 1400 1399 1399 1399 1400 1402 1401 1403 1404 1404 1404 1405 1407 1410 1414 1418 1423 1428 1432 1435 1440 1441 1448 1455 1460 1462 1465 1466 1467 1468 1470 1469
1414 1413 1409 1407 1404 1402 1400 1397 1395 1394 1392 1393 1392 1392 1394 1395 1396 1396 1397 1398 1398 1399 1400 1402 1406 1411 1415 1419 1425 1431 1436 1438 1444 1444 1450 1455 1458 1461 1463 1465 1466 1468 1467